Time,TemperatureF,DewpointF,PressureIn,WindDirection,WindDirectionDegrees,WindSpeedMPH,WindSpeedGustMPH,Humidity,HourlyPrecipIn,Conditions,Clouds,dailyrainin,SolarRadiationWatts/m^2,SoftwareType,DateUTC
2013-02-15 00:00:00,63.3,61.5,30.02,NNW,346,1.0,2.0,94,0.10,,RA,0.61,0.00,VWS V14.01,2013-02-15 05:00:00,
2013-02-15 00:05:00,63.3,61.8,30.02,NE,49,1.0,2.0,95,0.05,,RA,0.01,0.00,VWS V14.01,2013-02-15 05:05:00,
2013-02-15 00:10:00,63.2,61.8,30.02,NNE,16,1.0,2.0,95,0.07,,RA,0.03,0.00,VWS V14.01,2013-02-15 05:10:00,
2013-02-15 00:15:00,63.2,61.8,30.01,NNE,16,1.0,2.0,95,0.10,,RA,0.07,0.00,VWS V14.01,2013-02-15 05:15:00,
2013-02-15 00:20:00,63.2,61.8,30.00,NNE,13,1.0,2.0,95,0.11,,RA,0.10,0.00,VWS V14.01,2013-02-15 05:20:00,
2013-02-15 00:25:00,63.1,61.7,30.00,NNE,27,0.0,2.0,95,0.11,,RA,0.10,0.00,VWS V14.01,2013-02-15 05:25:00,
2013-02-15 00:30:00,63.1,61.7,29.99,NNE,32,1.0,2.0,95,0.11,,RA,0.10,0.00,VWS V14.01,2013-02-15 05:30:00,
2013-02-15 00:35:00,63.2,61.8,30.00,NNE,15,1.0,4.0,95,0.11,,RA,0.10,0.00,VWS V14.01,2013-02-15 05:35:00,
2013-02-15 00:40:00,63.2,61.8,30.00,North,351,1.0,4.0,95,0.12,,RA,0.11,0.00,VWS V14.01,2013-02-15 05:40:00,
2013-02-15 00:45:00,63.2,61.8,30.00,NE,54,4.0,4.0,95,0.12,,RA,0.11,0.00,VWS V14.01,2013-02-15 05:45:00,
2013-02-15 00:50:00,63.2,61.8,30.00,North,360,2.0,4.0,95,0.12,,RA,0.11,0.00,VWS V14.01,2013-02-15 05:50:00,
2013-02-15 00:55:00,63.2,61.8,30.00,North,355,0.0,4.0,95,0.11,,RA,0.11,0.00,VWS V14.01,2013-02-15 05:55:00,
2013-02-15 01:00:00,63.2,61.8,30.00,NNW,340,0.0,0.0,95,0.11,,RA,0.11,0.00,VWS V14.01,2013-02-15 06:00:00,
2013-02-15 01:05:00,63.2,61.8,30.01,NNW,340,0.0,1.0,95,0.10,,RA,0.11,0.00,VWS V14.01,2013-02-15 06:05:00,
2013-02-15 01:10:00,63.3,61.8,30.01,NNW,340,0.0,1.0,95,0.08,,RA,0.11,0.00,VWS V14.01,2013-02-15 06:10:00,
2013-02-15 01:15:00,63.3,61.8,30.00,NNW,340,0.0,0.0,95,0.04,,RA,0.11,0.00,VWS V14.01,2013-02-15 06:15:00,
2013-02-15 01:20:00,63.4,62.0,30.01,NNW,340,1.0,2.0,95,0.02,,RA,0.12,0.00,VWS V14.01,2013-02-15 06:20:00,
2013-02-15 01:25:00,63.5,62.0,30.00,NNW,340,1.0,3.0,95,0.03,,RA,0.13,0.00,VWS V14.01,2013-02-15 06:25:00,
2013-02-15 01:30:00,63.6,62.4,30.00,NNW,340,3.0,3.0,96,0.05,,RA,0.15,0.00,VWS V14.01,2013-02-15 06:30:00,
2013-02-15 01:35:00,63.5,62.3,30.00,NNW,340,0.0,3.0,96,0.06,,RA,0.16,0.00,VWS V14.01,2013-02-15 06:35:00,
2013-02-15 01:40:00,63.6,62.4,29.99,NNW,340,0.0,0.0,96,0.05,,-RA,0.16,0.00,VWS V14.01,2013-02-15 06:40:00,
2013-02-15 01:45:00,63.6,62.4,29.99,NNW,340,1.0,2.0,96,0.06,,-RA,0.17,0.00,VWS V14.01,2013-02-15 06:45:00,
2013-02-15 01:50:00,63.6,62.4,29.99,NNW,340,0.0,2.0,96,0.06,,-RA,0.18,0.00,VWS V14.01,2013-02-15 06:50:00,
2013-02-15 01:55:00,63.6,62.4,29.99,NNW,340,0.0,0.0,96,0.07,,-RA,0.18,0.00,VWS V14.01,2013-02-15 06:55:00,
2013-02-15 02:00:00,63.6,62.4,29.99,NNW,340,1.0,1.0,96,0.08,, +RA,0.19,0.00,VWS V14.01,2013-02-15 07:00:00,
2013-02-15 02:05:00,63.7,62.5,29.99,NNW,340,2.0,3.0,96,0.08,, +RA,0.19,0.00,VWS V14.01,2013-02-15 07:05:00,
2013-02-15 02:10:00,63.8,62.6,29.99,NNW,339,3.0,4.0,96,0.10,, +RA,0.21,0.00,VWS V14.01,2013-02-15 07:10:00,
2013-02-15 02:15:00,63.8,62.6,29.98,NNW,344,0.0,2.0,96,0.11,, +RA,0.22,0.00,VWS V14.01,2013-02-15 07:15:00,
2013-02-15 02:20:00,63.8,62.6,29.98,NE,48,3.0,3.0,96,0.13,, +RA,0.25,0.00,VWS V14.01,2013-02-15 07:20:00,
2013-02-15 02:25:00,63.8,62.6,29.98,ENE,59,2.0,7.0,96,0.13,, +RA,0.26,0.00,VWS V14.01,2013-02-15 07:25:00,
2013-02-15 02:30:00,63.8,62.6,29.97,ENE,58,0.0,2.0,96,0.12,, +RA,0.27,0.00,VWS V14.01,2013-02-15 07:30:00,
2013-02-15 02:35:00,63.9,62.7,29.98,NE,34,1.0,4.0,96,0.12,, +RA,0.28,0.00,VWS V14.01,2013-02-15 07:35:00,
2013-02-15 02:40:00,64.0,62.8,29.98,NNE,30,3.0,3.0,96,0.13,,-RA,0.29,0.00,VWS V14.01,2013-02-15 07:40:00,
2013-02-15 02:45:00,64.0,62.8,29.98,NNW,327,3.0,4.0,96,0.12,,-RA,0.29,0.00,VWS V14.01,2013-02-15 07:45:00,
2013-02-15 02:50:00,64.1,62.9,29.98,NNW,333,2.0,4.0,96,0.15,,-RA,0.32,0.00,VWS V14.01,2013-02-15 07:50:00,
2013-02-15 02:55:00,64.0,62.8,29.98,NNW,334,0.0,1.0,96,0.17,,-RA,0.35,0.00,VWS V14.01,2013-02-15 07:55:00,
2013-02-15 03:00:00,64.0,62.8,29.97,NNE,26,1.0,3.0,96,0.17,,-RA,0.36,0.00,VWS V14.01,2013-02-15 08:00:00,
2013-02-15 03:05:00,64.1,62.9,29.98,NNE,26,1.0,1.0,96,0.18,,-RA,0.37,0.00,VWS V14.01,2013-02-15 08:05:00,
2013-02-15 03:10:00,64.2,63.0,29.98,NNE,26,1.0,2.0,96,0.16,,-RA,0.37,0.00,VWS V14.01,2013-02-15 08:10:00,
2013-02-15 03:15:00,64.2,63.0,29.98,NNE,26,0.0,1.0,96,0.15,,-RA,0.37,0.00,VWS V14.01,2013-02-15 08:15:00,
2013-02-15 03:20:00,64.3,63.1,29.98,North,5,1.0,3.0,96,0.12,,-RA,0.37,0.00,VWS V14.01,2013-02-15 08:20:00,
2013-02-15 03:25:00,64.5,63.3,29.98,NNW,348,2.0,3.0,96,0.11,,-RA,0.37,0.00,VWS V14.01,2013-02-15 08:25:00,
2013-02-15 03:30:00,64.5,63.3,29.98,NW,325,4.0,5.0,96,0.10,,-RA,0.37,0.00,VWS V14.01,2013-02-15 08:30:00,
2013-02-15 03:35:00,64.5,63.3,29.98,NNW,331,2.0,4.0,96,0.09,,-RA,0.37,0.00,VWS V14.01,2013-02-15 08:35:00,
2013-02-15 03:40:00,64.6,63.4,29.98,NW,325,3.0,5.0,96,0.08,,OVC039,0.37,0.00,VWS V14.01,2013-02-15 08:40:00,
2013-02-15 03:45:00,64.6,63.4,29.98,NW,313,2.0,6.0,96,0.09,,OVC039,0.38,0.00,VWS V14.01,2013-02-15 08:45:00,
2013-02-15 03:50:00,64.6,63.4,29.98,NW,322,2.0,3.0,96,0.07,,OVC039,0.39,0.00,VWS V14.01,2013-02-15 08:50:00,
2013-02-15 03:55:00,64.6,63.4,29.97,NW,322,0.0,2.0,96,0.06,,-RA,0.41,0.00,VWS V14.01,2013-02-15 08:55:00,
2013-02-15 04:00:00,64.6,63.4,29.97,NW,322,0.0,0.0,96,0.06,,-RA,0.42,0.00,VWS V14.01,2013-02-15 09:00:00,
2013-02-15 04:05:00,64.5,63.3,29.97,NW,322,0.0,1.0,96,0.06,,-RA,0.43,0.00,VWS V14.01,2013-02-15 09:05:00,
2013-02-15 04:10:00,64.7,63.5,29.97,NW,322,1.0,2.0,96,0.06,,-RA,0.43,0.00,VWS V14.01,2013-02-15 09:10:00,
2013-02-15 04:15:00,64.8,63.6,29.97,NNW,333,0.0,1.0,96,0.07,,-RA,0.44,0.00,VWS V14.01,2013-02-15 09:15:00,
2013-02-15 04:20:00,64.8,63.6,29.97,NNW,333,1.0,2.0,96,0.07,,-RA,0.44,0.00,VWS V14.01,2013-02-15 09:20:00,
2013-02-15 04:25:00,64.9,63.7,29.97,NNW,341,1.0,4.0,96,0.07,,-RA,0.44,0.00,VWS V14.01,2013-02-15 09:25:00,
2013-02-15 04:30:00,65.0,63.8,29.97,NNW,341,1.0,3.0,96,0.07,,-RA,0.44,0.00,VWS V14.01,2013-02-15 09:30:00,
2013-02-15 04:35:00,65.0,63.8,29.97,NNW,341,1.0,2.0,96,0.07,,-RA,0.44,0.00,VWS V14.01,2013-02-15 09:35:00,
2013-02-15 04:40:00,65.0,63.8,29.97,NNW,341,0.0,1.0,96,0.07,,-RA,0.44,0.00,VWS V14.01,2013-02-15 09:40:00,
2013-02-15 04:45:00,65.0,63.8,29.97,NE,47,1.0,2.0,96,0.06,,-RA,0.44,0.00,VWS V14.01,2013-02-15 09:45:00,
2013-02-15 04:50:00,65.0,63.8,29.97,NE,51,4.0,4.0,96,0.05,,-RA,0.44,0.00,VWS V14.01,2013-02-15 09:50:00,
2013-02-15 04:55:00,65.0,63.8,29.97,NE,51,1.0,3.0,96,0.03,,-RA,0.44,0.00,VWS V14.01,2013-02-15 09:55:00,
2013-02-15 05:00:00,65.0,63.8,29.97,NE,51,2.0,2.0,96,0.02,,-RA,0.44,0.00,VWS V14.01,2013-02-15 10:00:00,
2013-02-15 05:05:00,65.0,63.8,29.97,NE,51,0.0,0.0,96,0.01,,-RA,0.44,0.00,VWS V14.01,2013-02-15 10:05:00,
2013-02-15 05:10:00,65.2,64.3,29.98,NE,51,1.0,1.0,97,0.01,,-RA,0.44,0.00,VWS V14.01,2013-02-15 10:10:00,
2013-02-15 05:15:00,65.3,64.4,29.98,NE,51,1.0,2.0,97,0.00,,-RA,0.44,0.00,VWS V14.01,2013-02-15 10:15:00,
2013-02-15 05:20:00,65.4,64.5,29.98,NE,36,1.0,3.0,97,0.00,,-RA,0.44,0.00,VWS V14.01,2013-02-15 10:20:00,
2013-02-15 05:25:00,65.5,64.6,29.98,North,5,2.0,2.0,97,0.00,,-RA,0.44,0.00,VWS V14.01,2013-02-15 10:25:00,
2013-02-15 05:30:00,65.6,64.7,29.99,NNW,343,2.0,2.0,97,0.00,,-RA,0.44,0.00,VWS V14.01,2013-02-15 10:30:00,
2013-02-15 05:35:00,65.7,64.8,29.99,North,355,2.0,3.0,97,0.01,,-RA,0.45,0.00,VWS V14.01,2013-02-15 10:35:00,
2013-02-15 05:40:00,65.7,64.8,29.99,NNW,345,4.0,7.0,97,0.01,,-RA,0.45,0.00,VWS V14.01,2013-02-15 10:40:00,
2013-02-15 05:45:00,65.9,65.0,29.99,NW,314,1.0,2.0,97,0.02,,OVC036,0.46,0.00,VWS V14.01,2013-02-15 10:45:00,
2013-02-15 05:50:00,65.9,65.0,29.99,NW,314,0.0,1.0,97,0.02,,OVC036,0.46,0.00,VWS V14.01,2013-02-15 10:50:00,
2013-02-15 05:55:00,65.9,65.0,29.99,NW,314,0.0,0.0,97,0.02,,-RA,0.46,0.00,VWS V14.01,2013-02-15 10:55:00,
2013-02-15 06:00:00,65.9,65.0,29.99,NE,36,1.0,2.0,97,0.02,,-RA,0.46,0.00,VWS V14.01,2013-02-15 11:00:00,
2013-02-15 06:05:00,66.1,65.2,29.99,NE,51,0.0,2.0,97,0.02,,-RA,0.46,0.00,VWS V14.01,2013-02-15 11:05:00,
2013-02-15 06:10:00,66.1,65.2,29.99,NE,51,0.0,0.0,97,0.02,,-RA,0.46,0.00,VWS V14.01,2013-02-15 11:10:00,
2013-02-15 06:15:00,66.1,65.2,29.99,NE,55,2.0,3.0,97,0.02,,-RA,0.46,0.00,VWS V14.01,2013-02-15 11:15:00,
2013-02-15 06:20:00,66.2,65.3,29.98,ENE,63,3.0,5.0,97,0.02,,-RA,0.46,0.00,VWS V14.01,2013-02-15 11:20:00,
2013-02-15 06:25:00,66.3,65.4,29.99,NE,44,2.0,3.0,97,0.02,,-RA,0.46,0.00,VWS V14.01,2013-02-15 11:25:00,
2013-02-15 06:30:00,66.4,65.5,29.99,NE,44,0.0,4.0,97,0.02,,-RA,0.46,0.00,VWS V14.01,2013-02-15 11:30:00,
2013-02-15 06:35:00,66.5,65.6,29.99,NE,44,1.0,3.0,97,0.01,,-RA,0.46,0.00,VWS V14.01,2013-02-15 11:35:00,
2013-02-15 06:40:00,66.6,65.7,29.99,NE,47,2.0,4.0,97,0.01,,-RA,0.46,0.00,VWS V14.01,2013-02-15 11:40:00,
2013-02-15 06:45:00,66.7,65.8,29.99,NE,46,1.0,3.0,97,0.00,,-RA,0.46,0.00,VWS V14.01,2013-02-15 11:45:00,
2013-02-15 06:50:00,66.9,66.0,29.99,NE,46,1.0,2.0,97,0.00,,-RA,0.46,0.00,VWS V14.01,2013-02-15 11:50:00,
2013-02-15 06:55:00,66.9,66.0,30.00,NE,46,0.0,1.0,97,0.00,,-RA,0.46,0.00,VWS V14.01,2013-02-15 11:55:00,
2013-02-15 07:00:00,67.0,66.1,30.00,NE,47,0.0,1.0,97,0.00,,-RA,0.46,0.00,VWS V14.01,2013-02-15 12:00:00,
2013-02-15 07:05:00,67.0,66.1,30.01,NE,46,0.0,1.0,97,0.00,,-RA,0.46,0.00,VWS V14.01,2013-02-15 12:05:00,
2013-02-15 07:10:00,67.0,66.1,30.01,NE,46,1.0,2.0,97,0.00,,-RA,0.46,0.00,VWS V14.01,2013-02-15 12:10:00,
2013-02-15 07:15:00,67.0,66.1,30.01,NE,46,1.0,2.0,97,0.00,,-RA,0.46,5.00,VWS V14.01,2013-02-15 12:15:00,
2013-02-15 07:20:00,67.0,66.1,30.01,NE,46,1.0,2.0,97,0.00,,-RA,0.46,9.00,VWS V14.01,2013-02-15 12:20:00,
2013-02-15 07:25:00,67.0,66.1,30.01,NE,46,2.0,3.0,97,0.00,,-RA,0.46,12.00,VWS V14.01,2013-02-15 12:25:00,
2013-02-15 07:30:00,67.0,66.1,30.01,ENE,65,0.0,3.0,97,0.00,,-RA,0.46,26.00,VWS V14.01,2013-02-15 12:30:00,
2013-02-15 07:35:00,67.1,66.2,30.01,NE,55,1.0,2.0,97,0.00,,-RA,0.46,35.00,VWS V14.01,2013-02-15 12:35:00,
2013-02-15 07:40:00,67.1,66.2,30.01,NE,53,2.0,3.0,97,0.00,,-RA,0.46,40.00,VWS V14.01,2013-02-15 12:40:00,
2013-02-15 07:45:00,67.1,66.2,30.01,NE,53,1.0,3.0,97,0.00,,-RA,0.46,44.00,VWS V14.01,2013-02-15 12:45:00,
2013-02-15 07:50:00,67.3,66.4,30.02,NE,49,1.0,2.0,97,0.00,,-RA,0.46,49.00,VWS V14.01,2013-02-15 12:50:00,
2013-02-15 07:55:00,67.3,66.4,30.02,NE,51,2.0,2.0,97,0.00,,OVC015,0.46,51.00,VWS V14.01,2013-02-15 12:55:00,
2013-02-15 08:00:00,67.4,66.5,30.02,NE,42,2.0,5.0,97,0.00,,OVC015,0.46,47.00,VWS V14.01,2013-02-15 13:00:00,
2013-02-15 08:05:00,67.5,66.6,30.02,NE,55,1.0,5.0,97,0.00,,OVC015,0.46,42.00,VWS V14.01,2013-02-15 13:05:00,
2013-02-15 08:10:00,67.5,66.6,30.02,ENE,57,2.0,2.0,97,0.00,,OVC015,0.46,54.00,VWS V14.01,2013-02-15 13:10:00,
2013-02-15 08:15:00,67.5,66.6,30.02,ENE,58,0.0,4.0,97,0.00,,OVC015,0.46,62.00,VWS V14.01,2013-02-15 13:15:00,
2013-02-15 08:20:00,67.5,66.3,30.02,NE,53,3.0,7.0,96,0.00,,OVC015,0.46,58.00,VWS V14.01,2013-02-15 13:20:00,
2013-02-15 08:25:00,67.6,66.4,30.02,ENE,64,1.0,2.0,96,0.00,,OVC015,0.46,76.00,VWS V14.01,2013-02-15 13:25:00,
2013-02-15 08:30:00,67.8,66.9,30.03,ENE,64,2.0,3.0,97,0.00,,OVC015,0.46,70.00,VWS V14.01,2013-02-15 13:30:00,
2013-02-15 08:35:00,67.9,66.7,30.03,ENE,62,2.0,4.0,96,0.00,,OVC015,0.46,40.00,VWS V14.01,2013-02-15 13:35:00,
2013-02-15 08:40:00,67.9,66.7,30.03,NE,56,4.0,4.0,96,0.00,,OVC015,0.46,47.00,VWS V14.01,2013-02-15 13:40:00,
2013-02-15 08:45:00,68.0,66.8,30.03,NE,44,2.0,6.0,96,0.00,,OVC039,0.46,35.00,VWS V14.01,2013-02-15 13:45:00,
2013-02-15 08:50:00,68.0,66.8,30.03,NE,55,3.0,9.0,96,0.00,,OVC039,0.46,67.00,VWS V14.01,2013-02-15 13:50:00,
2013-02-15 08:55:00,68.1,66.6,30.02,NE,45,3.0,4.0,95,0.00,,OVC039,0.46,90.00,VWS V14.01,2013-02-15 13:55:00,
2013-02-15 09:00:00,68.3,66.8,30.02,NE,53,7.0,7.0,95,0.00,,OVC039,0.46,100.00,VWS V14.01,2013-02-15 14:00:00,
2013-02-15 09:05:00,68.5,67.0,30.03,ENE,63,5.0,8.0,95,0.00,,OVC039,0.46,100.00,VWS V14.01,2013-02-15 14:05:00,
2013-02-15 09:10:00,68.7,67.2,30.03,NE,51,3.0,4.0,95,0.00,,OVC039,0.46,127.00,VWS V14.01,2013-02-15 14:10:00,
2013-02-15 09:14:00,69.0,67.5,30.02,ENE,59,3.0,6.0,95,0.00,,OVC039,0.46,148.00,VWS V14.01,2013-02-15 14:14:00,
2013-02-15 09:15:00,69.0,67.5,30.02,ENE,59,3.0,6.0,95,0.00,,FEW065,0.46,148.00,VWS V14.01,2013-02-15 14:15:00,
2013-02-15 09:19:00,69.3,67.5,30.02,ENE,61,2.0,3.0,94,0.00,,OVC039,0.46,165.00,VWS V14.01,2013-02-15 14:19:00,
2013-02-15 09:20:00,69.3,67.5,30.02,ENE,61,2.0,3.0,94,0.00,,FEW065,0.46,165.00,VWS V14.01,2013-02-15 14:20:00,
2013-02-15 09:24:00,69.7,67.9,30.02,NE,55,2.0,3.0,94,0.00,,OVC039,0.46,216.00,VWS V14.01,2013-02-15 14:24:00,
2013-02-15 09:25:00,69.7,67.9,30.02,NE,55,2.0,3.0,94,0.00,,FEW065,0.46,216.00,VWS V14.01,2013-02-15 14:25:00,
2013-02-15 09:29:00,69.9,67.8,30.02,ENE,62,3.0,5.0,93,0.00,,OVC039,0.46,158.00,VWS V14.01,2013-02-15 14:29:00,
2013-02-15 09:30:00,69.9,67.8,30.02,ENE,65,4.0,5.0,93,0.00,,FEW065,0.46,158.00,VWS V14.01,2013-02-15 14:30:00,
2013-02-15 09:34:00,70.1,67.7,30.02,NE,55,3.0,5.0,92,0.00,,OVC039,0.46,141.00,VWS V14.01,2013-02-15 14:34:00,
2013-02-15 09:35:00,70.1,67.7,30.02,NE,52,2.0,5.0,92,0.00,,FEW065,0.46,141.00,VWS V14.01,2013-02-15 14:35:00,
2013-02-15 09:39:00,70.3,67.6,30.03,ENE,61,5.0,8.0,91,0.00,,OVC039,0.46,162.00,VWS V14.01,2013-02-15 14:39:00,
2013-02-15 09:40:00,70.3,67.6,30.03,ENE,67,7.0,8.0,91,0.00,,FEW065,0.46,162.00,VWS V14.01,2013-02-15 14:40:00,
2013-02-15 09:44:00,70.5,67.4,30.03,NE,48,1.0,6.0,90,0.00,,OVC080,0.46,172.00,VWS V14.01,2013-02-15 14:44:00,
2013-02-15 09:45:00,70.5,67.4,30.03,NE,48,1.0,6.0,90,0.00,,FEW065,0.46,185.00,VWS V14.01,2013-02-15 14:45:00,
2013-02-15 09:49:00,70.8,67.7,30.02,NE,51,3.0,7.0,90,0.00,,OVC080,0.46,234.00,VWS V14.01,2013-02-15 14:49:00,
2013-02-15 09:50:00,70.8,67.7,30.02,NE,50,2.0,7.0,90,0.00,,FEW065,0.46,239.00,VWS V14.01,2013-02-15 14:50:00,
2013-02-15 09:54:00,71.0,67.3,30.02,East,85,2.0,7.0,88,0.00,,OVC080,0.46,290.00,VWS V14.01,2013-02-15 14:54:00,
2013-02-15 09:55:00,71.0,67.3,30.02,East,80,3.0,5.0,88,0.00,,FEW065,0.46,290.00,VWS V14.01,2013-02-15 14:55:00,
2013-02-15 09:59:00,71.5,67.8,30.02,East,91,7.0,7.0,88,0.00,,OVC080,0.46,294.00,VWS V14.01,2013-02-15 14:59:00,
2013-02-15 10:00:00,71.5,67.8,30.02,East,92,5.0,7.0,88,0.00,,FEW065,0.46,294.00,VWS V14.01,2013-02-15 15:00:00,
2013-02-15 10:04:00,71.8,68.1,30.02,ENE,57,4.0,7.0,88,0.00,,OVC080,0.46,257.00,VWS V14.01,2013-02-15 15:04:00,
2013-02-15 10:05:00,71.8,68.1,30.02,ENE,57,3.0,7.0,88,0.00,,FEW065,0.46,257.00,VWS V14.01,2013-02-15 15:05:00,
2013-02-15 10:09:00,72.0,67.9,30.02,ENE,61,2.0,8.0,87,0.00,,OVC080,0.46,271.00,VWS V14.01,2013-02-15 15:09:00,
2013-02-15 10:10:00,72.0,67.9,30.02,ENE,61,2.0,8.0,87,0.00,,FEW065,0.46,271.00,VWS V14.01,2013-02-15 15:10:00,
2013-02-15 10:14:00,72.2,68.1,30.02,NE,40,2.0,7.0,87,0.00,,OVC080,0.46,480.00,VWS V14.01,2013-02-15 15:14:00,
2013-02-15 10:15:00,72.2,68.1,30.02,NE,41,3.0,7.0,87,0.00,,FEW065,0.46,480.00,VWS V14.01,2013-02-15 15:15:00,
2013-02-15 10:19:00,72.4,68.0,30.02,NE,51,5.0,5.0,86,0.00,,OVC080,0.46,237.00,VWS V14.01,2013-02-15 15:19:00,
2013-02-15 10:20:00,72.4,68.0,30.02,ENE,59,7.0,7.0,86,0.00,,FEW065,0.46,218.00,VWS V14.01,2013-02-15 15:20:00,
2013-02-15 10:24:00,72.4,67.6,30.02,NE,49,3.0,7.0,85,0.00,,OVC080,0.46,243.00,VWS V14.01,2013-02-15 15:24:00,
2013-02-15 10:25:00,72.4,67.6,30.02,NE,49,2.0,7.0,85,0.00,,FEW065,0.46,243.00,VWS V14.01,2013-02-15 15:25:00,
2013-02-15 10:29:00,72.5,67.4,30.02,ENE,59,5.0,6.0,84,0.00,,OVC080,0.46,172.00,VWS V14.01,2013-02-15 15:29:00,
2013-02-15 10:30:00,72.5,67.4,30.02,NE,46,6.0,6.0,84,0.00,,FEW065,0.46,172.00,VWS V14.01,2013-02-15 15:30:00,
2013-02-15 10:34:00,72.5,67.7,30.02,ENE,61,7.0,7.0,85,0.00,,OVC080,0.46,200.00,VWS V14.01,2013-02-15 15:34:00,
2013-02-15 10:35:00,72.5,67.7,30.02,ENE,57,7.0,7.0,85,0.00,,FEW065,0.46,200.00,VWS V14.01,2013-02-15 15:35:00,
2013-02-15 10:39:00,72.4,67.6,30.02,East,86,3.0,7.0,85,0.00,,OVC080,0.46,260.00,VWS V14.01,2013-02-15 15:39:00,
2013-02-15 10:40:00,72.4,67.6,30.02,East,86,3.0,7.0,85,0.00,,FEW065,0.46,260.00,VWS V14.01,2013-02-15 15:40:00,
2013-02-15 10:44:00,72.6,67.8,30.02,ENE,58,7.0,8.0,85,0.00,,OVC100,0.46,258.00,VWS V14.01,2013-02-15 15:44:00,
2013-02-15 10:45:00,72.6,67.8,30.02,ENE,57,4.0,8.0,85,0.00,,FEW065,0.46,258.00,VWS V14.01,2013-02-15 15:45:00,
2013-02-15 10:49:00,72.6,67.2,30.03,ENE,76,3.0,5.0,83,0.00,,OVC100,0.46,181.00,VWS V14.01,2013-02-15 15:49:00,
2013-02-15 10:50:00,72.6,67.2,30.03,ENE,76,2.0,5.0,83,0.00,,FEW065,0.46,181.00,VWS V14.01,2013-02-15 15:50:00,
2013-02-15 10:54:00,72.7,67.6,30.03,NE,47,1.0,4.0,84,0.00,,OVC100,0.46,158.00,VWS V14.01,2013-02-15 15:54:00,
2013-02-15 10:55:00,72.7,67.6,30.03,NE,47,1.0,4.0,84,0.00,,FEW065,0.46,156.00,VWS V14.01,2013-02-15 15:55:00,
2013-02-15 10:59:00,72.7,67.6,30.03,NE,47,1.0,2.0,84,0.00,,OVC100,0.46,116.00,VWS V14.01,2013-02-15 15:59:00,
2013-02-15 11:00:00,72.7,67.6,30.03,NE,47,2.0,2.0,84,0.00,,FEW065,0.46,111.00,VWS V14.01,2013-02-15 16:00:00,
2013-02-15 11:04:00,72.5,67.1,30.04,NE,47,2.0,2.0,83,0.00,,OVC100,0.46,118.00,VWS V14.01,2013-02-15 16:04:00,
2013-02-15 11:05:00,72.5,67.1,30.04,NE,47,4.0,4.0,83,0.00,,FEW065,0.46,118.00,VWS V14.01,2013-02-15 16:05:00,
2013-02-15 11:09:00,72.5,67.7,30.03,NE,53,4.0,8.0,85,0.00,,OVC100,0.46,281.00,VWS V14.01,2013-02-15 16:09:00,
2013-02-15 11:10:00,72.5,67.7,30.03,NE,53,2.0,8.0,85,0.00,,FEW065,0.46,281.00,VWS V14.01,2013-02-15 16:10:00,
2013-02-15 11:14:00,72.6,68.2,30.02,NE,53,4.0,6.0,86,0.01,,OVC100,0.47,438.00,VWS V14.01,2013-02-15 16:14:00,
2013-02-15 11:15:00,72.6,68.2,30.02,NE,53,4.0,6.0,86,0.01,,FEW065,0.47,438.00,VWS V14.01,2013-02-15 16:15:00,
2013-02-15 11:19:00,72.8,68.4,30.02,NE,46,3.0,4.0,86,0.01,,OVC100,0.47,450.00,VWS V14.01,2013-02-15 16:19:00,
2013-02-15 11:20:00,72.8,68.4,30.02,NE,46,3.0,4.0,86,0.01,,FEW065,0.47,450.00,VWS V14.01,2013-02-15 16:20:00,
2013-02-15 11:24:00,73.1,68.7,30.02,NE,51,3.0,4.0,86,0.01,,OVC100,0.47,355.00,VWS V14.01,2013-02-15 16:24:00,
2013-02-15 11:25:00,73.1,68.7,30.02,NE,51,3.0,3.0,86,0.01,,FEW065,0.47,355.00,VWS V14.01,2013-02-15 16:25:00,
2013-02-15 11:29:00,73.1,68.3,30.02,ENE,65,4.0,6.0,85,0.01,,OVC100,0.47,265.00,VWS V14.01,2013-02-15 16:29:00,
2013-02-15 11:30:00,73.1,68.3,30.02,ENE,60,8.0,8.0,85,0.01,,FEW065,0.47,265.00,VWS V14.01,2013-02-15 16:30:00,
2013-02-15 11:34:00,73.0,68.2,30.02,NE,54,3.0,7.0,85,0.01,,OVC100,0.47,285.00,VWS V14.01,2013-02-15 16:34:00,
2013-02-15 11:35:00,73.0,68.2,30.02,NE,40,3.0,7.0,85,0.01,,FEW065,0.47,285.00,VWS V14.01,2013-02-15 16:35:00,
2013-02-15 11:39:00,73.0,68.2,30.02,ENE,60,0.0,2.0,85,0.01,,OVC100,0.47,225.00,VWS V14.01,2013-02-15 16:39:00,
2013-02-15 11:40:00,73.0,68.2,30.02,ENE,60,1.0,2.0,85,0.01,,FEW065,0.47,225.00,VWS V14.01,2013-02-15 16:40:00,
2013-02-15 11:44:00,73.0,68.2,30.02,NE,54,0.0,4.0,85,0.01,,OVC090,0.47,258.00,VWS V14.01,2013-02-15 16:44:00,
2013-02-15 11:45:00,73.0,68.2,30.02,NE,54,1.0,3.0,85,0.01,,FEW065,0.47,258.00,VWS V14.01,2013-02-15 16:45:00,
2013-02-15 11:49:00,73.0,67.9,30.02,NE,41,2.0,3.0,84,0.01,,OVC090,0.47,294.00,VWS V14.01,2013-02-15 16:49:00,
2013-02-15 11:50:00,73.0,67.9,30.02,NE,41,2.0,3.0,84,0.01,,FEW065,0.47,294.00,VWS V14.01,2013-02-15 16:50:00,
2013-02-15 11:54:00,73.2,68.4,30.02,ENE,61,3.0,3.0,85,0.01,,OVC090,0.47,149.00,VWS V14.01,2013-02-15 16:54:00,
2013-02-15 11:55:00,73.2,68.4,30.02,ENE,61,2.0,3.0,85,0.01,,FEW065,0.47,149.00,VWS V14.01,2013-02-15 16:55:00,
2013-02-15 11:59:00,73.0,67.9,30.02,ENE,61,2.0,3.0,84,0.01,,OVC090,0.47,120.00,VWS V14.01,2013-02-15 16:59:00,
2013-02-15 12:00:00,73.0,67.9,30.02,ENE,61,2.0,3.0,84,0.01,,FEW065,0.47,113.00,VWS V14.01,2013-02-15 17:00:00,
2013-02-15 12:04:00,72.8,67.7,30.02,ENE,64,5.0,5.0,84,0.01,,OVC090,0.47,105.00,VWS V14.01,2013-02-15 17:04:00,
2013-02-15 12:05:00,72.8,67.7,30.02,ENE,58,7.0,7.0,84,0.01,,FEW065,0.47,109.00,VWS V14.01,2013-02-15 17:05:00,
2013-02-15 12:09:00,72.7,67.6,30.01,ENE,63,2.0,5.0,84,0.01,,OVC090,0.47,100.00,VWS V14.01,2013-02-15 17:09:00,
2013-02-15 12:10:00,72.7,67.6,30.01,ENE,63,3.0,5.0,84,0.01,,FEW065,0.47,100.00,VWS V14.01,2013-02-15 17:10:00,
2013-02-15 12:14:00,72.6,67.5,30.01,ENE,63,4.0,4.0,84,0.01,,OVC090,0.47,83.00,VWS V14.01,2013-02-15 17:14:00,
2013-02-15 12:15:00,72.6,67.5,30.01,ENE,58,4.0,8.0,84,0.01,,FEW065,0.47,83.00,VWS V14.01,2013-02-15 17:15:00,
2013-02-15 12:19:00,72.6,67.8,30.01,NE,48,1.0,1.0,85,0.00,,OVC090,0.47,84.00,VWS V14.01,2013-02-15 17:19:00,
2013-02-15 12:20:00,72.6,67.8,30.01,NE,48,1.0,1.0,85,0.00,,FEW065,0.47,84.00,VWS V14.01,2013-02-15 17:20:00,
2013-02-15 12:24:00,72.5,68.4,30.01,NNE,17,2.0,4.0,87,0.00,,OVC090,0.47,86.00,VWS V14.01,2013-02-15 17:24:00,
2013-02-15 12:25:00,72.5,68.4,30.01,NNE,17,1.0,4.0,87,0.00,,FEW065,0.47,86.00,VWS V14.01,2013-02-15 17:25:00,
2013-02-15 12:29:00,72.2,68.4,30.01,NNE,17,2.0,3.0,88,0.01,,OVC090,0.48,109.00,VWS V14.01,2013-02-15 17:29:00,
2013-02-15 12:30:00,72.2,68.4,30.00,NNE,17,2.0,3.0,88,0.01,,FEW065,0.48,109.00,VWS V14.01,2013-02-15 17:30:00,
2013-02-15 12:34:00,71.8,68.4,30.00,NNW,336,2.0,3.0,89,0.01,,OVC090,0.48,86.00,VWS V14.01,2013-02-15 17:34:00,
2013-02-15 12:35:00,71.8,68.4,30.00,NNW,337,3.0,3.0,89,0.01,,FEW065,0.48,72.00,VWS V14.01,2013-02-15 17:35:00,
2013-02-15 12:39:00,71.5,68.1,30.01,North,349,0.0,2.0,89,0.02,,OVC090,0.49,54.00,VWS V14.01,2013-02-15 17:39:00,
2013-02-15 12:40:00,71.5,68.1,30.01,North,349,1.0,2.0,89,0.02,,FEW065,0.49,53.00,VWS V14.01,2013-02-15 17:40:00,
2013-02-15 12:44:00,71.1,68.0,30.00,North,355,3.0,5.0,90,0.02,,OVC035,0.49,33.00,VWS V14.01,2013-02-15 17:44:00,
2013-02-15 12:45:00,71.1,68.0,30.00,North,355,1.0,5.0,90,0.02,,FEW065,0.49,33.00,VWS V14.01,2013-02-15 17:45:00,
2013-02-15 12:49:00,70.8,67.7,30.00,North,355,2.0,2.0,90,0.03,,OVC035,0.50,28.00,VWS V14.01,2013-02-15 17:49:00,
2013-02-15 12:50:00,70.8,67.7,30.00,North,355,2.0,2.0,90,0.04,,FEW065,0.51,28.00,VWS V14.01,2013-02-15 17:50:00,
2013-02-15 12:54:00,70.6,67.8,30.01,NNW,329,5.0,7.0,91,0.07,,-RA,0.54,47.00,VWS V14.01,2013-02-15 17:54:00,
2013-02-15 12:55:00,70.6,67.8,30.01,NNW,346,3.0,7.0,91,0.07,,FEW065,0.54,47.00,VWS V14.01,2013-02-15 17:55:00,
2013-02-15 12:59:00,70.3,67.6,30.01,NNW,339,3.0,7.0,91,0.10,,-RA,0.57,63.00,VWS V14.01,2013-02-15 17:59:00,
2013-02-15 13:00:00,70.3,67.6,30.01,NNW,336,3.0,7.0,91,0.11,,FEW065,0.58,63.00,VWS V14.01,2013-02-15 18:00:00,
2013-02-15 13:04:00,70.3,67.9,30.01,NNW,333,1.0,3.0,92,0.12,,-RA,0.59,130.00,VWS V14.01,2013-02-15 18:04:00,
2013-02-15 13:05:00,70.2,67.8,30.01,NNW,333,1.0,3.0,92,0.12,,FEW065,0.59,139.00,VWS V14.01,2013-02-15 18:05:00,
2013-02-15 13:09:00,70.2,68.1,30.00,NNW,328,8.0,8.0,93,0.15,,-RA,0.62,134.00,VWS V14.01,2013-02-15 18:09:00,
2013-02-15 13:10:00,70.2,68.1,30.00,NNW,342,3.0,11.0,93,0.15,,FEW065,0.62,118.00,VWS V14.01,2013-02-15 18:10:00,
2013-02-15 13:14:00,70.0,67.9,30.00,NNW,339,2.0,2.0,93,0.16,,-RA,0.63,95.00,VWS V14.01,2013-02-15 18:14:00,
2013-02-15 13:15:00,70.0,67.9,30.00,NNW,339,3.0,3.0,93,0.16,,FEW065,0.63,91.00,VWS V14.01,2013-02-15 18:15:00,
2013-02-15 13:19:00,69.8,67.7,30.00,NNW,337,4.0,4.0,93,0.17,,-RA,0.64,65.00,VWS V14.01,2013-02-15 18:19:00,
2013-02-15 13:20:00,69.8,67.7,30.00,NNW,337,2.0,4.0,93,0.17,,FEW065,0.64,65.00,VWS V14.01,2013-02-15 18:20:00,
2013-02-15 13:24:00,69.6,67.5,30.00,North,355,2.0,7.0,93,0.17,,-RA,0.64,67.00,VWS V14.01,2013-02-15 18:24:00,
2013-02-15 13:25:00,69.6,67.5,30.00,NNE,14,3.0,7.0,93,0.17,,FEW065,0.64,67.00,VWS V14.01,2013-02-15 18:25:00,
2013-02-15 13:29:00,69.4,67.3,30.00,North,360,0.0,3.0,93,0.18,,-RA,0.65,53.00,VWS V14.01,2013-02-15 18:29:00,
2013-02-15 13:30:00,69.4,67.6,30.00,North,360,1.0,2.0,94,0.18,,FEW065,0.65,53.00,VWS V14.01,2013-02-15 18:30:00,
2013-02-15 13:34:00,69.3,67.2,29.99,NNW,339,5.0,6.0,93,0.17,,-RA,0.65,86.00,VWS V14.01,2013-02-15 18:34:00,
2013-02-15 13:35:00,69.3,67.2,29.99,North,5,5.0,7.0,93,0.17,,FEW065,0.65,86.00,VWS V14.01,2013-02-15 18:35:00,
2013-02-15 13:39:00,68.9,66.8,29.99,North,5,6.0,9.0,93,0.17,,-RA,0.65,81.00,VWS V14.01,2013-02-15 18:39:00,
2013-02-15 13:40:00,68.8,66.7,29.99,North,5,3.0,9.0,93,0.17,,FEW065,0.65,88.00,VWS V14.01,2013-02-15 18:40:00,
2013-02-15 13:44:00,68.1,65.7,29.99,North,350,4.0,9.0,92,0.16,,-RA,0.65,91.00,VWS V14.01,2013-02-15 18:44:00,
2013-02-15 13:45:00,68.1,65.7,29.99,North,360,4.0,9.0,92,0.16,,FEW065,0.65,86.00,VWS V14.01,2013-02-15 18:45:00,
2013-02-15 13:49:00,67.8,65.7,29.99,NNW,346,7.0,7.0,93,0.16,,-RA,0.65,95.00,VWS V14.01,2013-02-15 18:49:00,
2013-02-15 13:50:00,67.8,65.7,29.99,North,11,3.0,7.0,93,0.16,,FEW065,0.65,91.00,VWS V14.01,2013-02-15 18:50:00,
2013-02-15 13:54:00,67.7,65.6,29.99,North,360,1.0,6.0,93,0.15,,-RA,0.66,120.00,VWS V14.01,2013-02-15 18:54:00,
2013-02-15 13:55:00,67.7,65.6,29.99,North,360,5.0,5.0,93,0.15,,FEW065,0.66,120.00,VWS V14.01,2013-02-15 18:55:00,
2013-02-15 13:59:00,67.8,65.7,29.99,NNW,344,2.0,4.0,93,0.12,,-RA,0.66,79.00,VWS V14.01,2013-02-15 18:59:00,
2013-02-15 14:00:00,67.8,65.7,29.99,NNW,333,6.0,6.0,93,0.12,,FEW065,0.66,79.00,VWS V14.01,2013-02-15 19:00:00,
2013-02-15 14:04:00,67.9,65.8,29.98,North,360,2.0,3.0,93,0.08,,-RA,0.66,69.00,VWS V14.01,2013-02-15 19:04:00,
2013-02-15 14:05:00,67.9,65.8,29.98,North,360,2.0,3.0,93,0.08,,FEW065,0.66,69.00,VWS V14.01,2013-02-15 19:05:00,
2013-02-15 14:09:00,67.8,65.7,29.98,NNW,338,2.0,4.0,93,0.07,,-RA,0.66,95.00,VWS V14.01,2013-02-15 19:09:00,
2013-02-15 14:10:00,67.8,65.7,29.98,NNW,338,2.0,4.0,93,0.08,,FEW065,0.67,95.00,VWS V14.01,2013-02-15 19:10:00,
2013-02-15 14:14:00,67.6,65.5,29.99,NNW,342,3.0,6.0,93,0.05,,-RA,0.67,98.00,VWS V14.01,2013-02-15 19:14:00,
2013-02-15 14:15:00,67.6,65.5,29.99,NNW,336,4.0,6.0,93,0.05,,FEW065,0.67,98.00,VWS V14.01,2013-02-15 19:15:00,
2013-02-15 14:19:00,67.4,65.6,29.98,NNW,335,5.0,5.0,94,0.04,,-RA,0.67,155.00,VWS V14.01,2013-02-15 19:19:00,
2013-02-15 14:20:00,67.4,65.6,29.98,NW,325,5.0,7.0,94,0.04,,FEW065,0.67,155.00,VWS V14.01,2013-02-15 19:20:00,
2013-02-15 14:24:00,67.5,65.7,29.98,NW,317,0.0,3.0,94,0.03,,-RA,0.67,100.00,VWS V14.01,2013-02-15 19:24:00,
2013-02-15 14:25:00,67.5,65.7,29.98,NNW,333,7.0,7.0,94,0.03,,FEW065,0.67,95.00,VWS V14.01,2013-02-15 19:25:00,
2013-02-15 14:29:00,67.6,65.8,29.98,North,349,3.0,7.0,94,0.04,,-RA,0.68,69.00,VWS V14.01,2013-02-15 19:29:00,
2013-02-15 14:30:00,67.6,65.8,29.98,North,349,3.0,7.0,94,0.04,,FEW065,0.68,69.00,VWS V14.01,2013-02-15 19:30:00,
2013-02-15 14:34:00,67.6,65.8,29.98,NW,319,9.0,9.0,94,0.03,,-RA,0.68,69.00,VWS V14.01,2013-02-15 19:34:00,
2013-02-15 14:35:00,67.6,65.8,29.98,NNW,328,7.0,12.0,94,0.03,,FEW065,0.68,69.00,VWS V14.01,2013-02-15 19:35:00,
2013-02-15 14:39:00,67.6,65.8,29.98,NNW,331,2.0,6.0,94,0.03,,-RA,0.68,65.00,VWS V14.01,2013-02-15 19:39:00,
2013-02-15 14:40:00,67.7,65.9,29.98,NNW,344,2.0,6.0,94,0.04,,FEW065,0.69,69.00,VWS V14.01,2013-02-15 19:40:00,
2013-02-15 14:44:00,67.7,65.9,29.98,NNW,338,3.0,3.0,94,0.05,,-RA,0.70,72.00,VWS V14.01,2013-02-15 19:44:00,
2013-02-15 14:45:00,67.7,65.9,29.98,NNW,336,3.0,4.0,94,0.05,,FEW065,0.70,70.00,VWS V14.01,2013-02-15 19:45:00,
2013-02-15 14:49:00,67.7,65.9,29.99,NNW,346,2.0,4.0,94,0.06,,-RA,0.71,83.00,VWS V14.01,2013-02-15 19:49:00,
2013-02-15 14:50:00,67.7,65.9,29.99,NNW,330,3.0,4.0,94,0.06,,FEW065,0.71,84.00,VWS V14.01,2013-02-15 19:50:00,
2013-02-15 14:54:00,67.4,65.6,29.99,NNW,347,4.0,8.0,94,0.07,,-RA,0.72,102.00,VWS V14.01,2013-02-15 19:54:00,
2013-02-15 14:55:00,67.3,65.5,29.99,NNW,345,2.0,7.0,94,0.07,,FEW065,0.72,105.00,VWS V14.01,2013-02-15 19:55:00,
2013-02-15 14:59:00,67.1,65.3,29.98,North,5,3.0,5.0,94,0.07,,-RA,0.73,125.00,VWS V14.01,2013-02-15 19:59:00,
2013-02-15 15:00:00,67.1,65.3,29.98,NNW,347,3.0,5.0,94,0.07,,FEW065,0.73,125.00,VWS V14.01,2013-02-15 20:00:00,
2013-02-15 15:04:00,66.8,65.0,29.98,North,351,0.0,8.0,94,0.07,,-RA,0.73,135.00,VWS V14.01,2013-02-15 20:04:00,
2013-02-15 15:05:00,66.8,65.0,29.98,North,351,1.0,8.0,94,0.08,,FEW065,0.74,135.00,VWS V14.01,2013-02-15 20:05:00,
2013-02-15 15:09:00,66.7,64.9,29.98,NNW,335,4.0,6.0,94,0.09,,-RA,0.75,128.00,VWS V14.01,2013-02-15 20:09:00,
2013-02-15 15:10:00,66.8,65.0,29.98,North,351,2.0,5.0,94,0.09,,FEW065,0.75,128.00,VWS V14.01,2013-02-15 20:10:00,
2013-02-15 15:14:00,66.9,65.4,29.97,North,355,1.0,3.0,95,0.08,,-RA,0.75,139.00,VWS V14.01,2013-02-15 20:14:00,
2013-02-15 15:15:00,66.9,65.4,29.97,North,360,3.0,7.0,95,0.08,,FEW065,0.75,139.00,VWS V14.01,2013-02-15 20:15:00,
2013-02-15 15:19:00,67.0,65.2,29.98,NNW,336,2.0,7.0,94,0.08,,-RA,0.75,90.00,VWS V14.01,2013-02-15 20:19:00,
2013-02-15 15:20:00,67.0,65.2,29.98,NNW,343,4.0,7.0,94,0.08,,FEW065,0.75,83.00,VWS V14.01,2013-02-15 20:20:00,
2013-02-15 15:24:00,66.9,65.1,29.97,NNW,335,2.0,6.0,94,0.08,,-RA,0.75,86.00,VWS V14.01,2013-02-15 20:24:00,
2013-02-15 15:25:00,66.9,65.1,29.97,NNW,335,2.0,6.0,94,0.08,,FEW065,0.75,88.00,VWS V14.01,2013-02-15 20:25:00,
2013-02-15 15:29:00,67.0,65.2,29.97,NNW,342,2.0,3.0,94,0.08,,-RA,0.75,79.00,VWS V14.01,2013-02-15 20:29:00,
2013-02-15 15:30:00,67.0,65.2,29.97,NNW,329,4.0,5.0,94,0.08,,FEW065,0.75,77.00,VWS V14.01,2013-02-15 20:30:00,
2013-02-15 15:34:00,67.1,65.3,29.97,NNW,345,2.0,7.0,94,0.07,,-RA,0.75,74.00,VWS V14.01,2013-02-15 20:34:00,
2013-02-15 15:35:00,67.1,65.3,29.97,North,355,3.0,5.0,94,0.07,,FEW065,0.75,74.00,VWS V14.01,2013-02-15 20:35:00,
2013-02-15 15:39:00,67.1,65.3,29.97,North,350,2.0,6.0,94,0.07,,-RA,0.75,56.00,VWS V14.01,2013-02-15 20:39:00,
2013-02-15 15:40:00,67.1,65.3,29.97,North,350,1.0,4.0,94,0.07,,FEW065,0.75,56.00,VWS V14.01,2013-02-15 20:40:00,
2013-02-15 15:44:00,67.1,65.3,29.98,NNW,327,3.0,5.0,94,0.06,,-RA,0.75,49.00,VWS V14.01,2013-02-15 20:44:00,
2013-02-15 15:45:00,67.1,65.3,29.98,NNW,334,5.0,6.0,94,0.06,,FEW065,0.75,49.00,VWS V14.01,2013-02-15 20:45:00,
2013-02-15 15:49:00,67.1,65.3,29.98,NW,309,2.0,4.0,94,0.05,,-RA,0.75,49.00,VWS V14.01,2013-02-15 20:49:00,
2013-02-15 15:50:00,67.1,65.3,29.98,NW,316,2.0,4.0,94,0.05,,FEW065,0.75,47.00,VWS V14.01,2013-02-15 20:50:00,
2013-02-15 15:54:00,67.2,65.4,29.98,NNW,333,4.0,4.0,94,0.05,,-RA,0.76,49.00,VWS V14.01,2013-02-15 20:54:00,
2013-02-15 15:55:00,67.2,65.4,29.98,NNW,332,2.0,4.0,94,0.05,,FEW065,0.76,56.00,VWS V14.01,2013-02-15 20:55:00,
2013-02-15 15:59:00,67.3,65.5,29.98,NNW,333,1.0,3.0,94,0.06,,-RA,0.78,67.00,VWS V14.01,2013-02-15 20:59:00,
2013-02-15 16:00:00,67.3,65.5,29.98,NNW,333,2.0,2.0,94,0.06,,FEW065,0.78,67.00,VWS V14.01,2013-02-15 21:00:00,
2013-02-15 16:04:00,67.3,65.5,29.98,North,350,1.0,5.0,94,0.06,,-RA,0.79,70.00,VWS V14.01,2013-02-15 21:04:00,
2013-02-15 16:05:00,67.3,65.5,29.98,NW,325,2.0,5.0,94,0.06,,FEW065,0.79,74.00,VWS V14.01,2013-02-15 21:05:00,
2013-02-15 16:09:00,67.4,65.6,29.98,North,350,0.0,2.0,94,0.05,,-RA,0.79,58.00,VWS V14.01,2013-02-15 21:09:00,
2013-02-15 16:10:00,67.4,65.9,29.98,North,350,1.0,2.0,95,0.05,,FEW065,0.79,58.00,VWS V14.01,2013-02-15 21:10:00,
2013-02-15 16:14:00,67.4,65.9,29.97,North,5,1.0,2.0,95,0.04,,-RA,0.79,72.00,VWS V14.01,2013-02-15 21:14:00,
2013-02-15 16:15:00,67.4,65.9,29.97,North,5,1.0,1.0,95,0.04,,FEW065,0.79,72.00,VWS V14.01,2013-02-15 21:15:00,
2013-02-15 16:19:00,67.3,65.5,29.98,North,355,0.0,4.0,94,0.04,,-RA,0.79,49.00,VWS V14.01,2013-02-15 21:19:00,
2013-02-15 16:20:00,67.3,65.5,29.98,North,355,0.0,4.0,94,0.05,,FEW065,0.80,47.00,VWS V14.01,2013-02-15 21:20:00,
2013-02-15 16:24:00,67.3,65.5,29.98,North,355,1.0,2.0,94,0.05,,-RA,0.80,42.00,VWS V14.01,2013-02-15 21:24:00,
2013-02-15 16:25:00,67.3,65.5,29.98,North,355,3.0,3.0,94,0.05,,FEW065,0.80,44.00,VWS V14.01,2013-02-15 21:25:00,
2013-02-15 16:29:00,67.2,65.4,29.98,NNW,346,1.0,3.0,94,0.05,,-RA,0.80,47.00,VWS V14.01,2013-02-15 21:29:00,
2013-02-15 16:30:00,67.2,65.4,29.98,NNW,348,1.0,3.0,94,0.05,,FEW065,0.80,44.00,VWS V14.01,2013-02-15 21:30:00,
2013-02-15 16:34:00,67.0,65.2,29.98,NNW,342,2.0,5.0,94,0.05,,-RA,0.80,46.00,VWS V14.01,2013-02-15 21:34:00,
2013-02-15 16:35:00,67.1,65.6,29.98,NNW,342,3.0,5.0,95,0.05,,FEW065,0.80,46.00,VWS V14.01,2013-02-15 21:35:00,
2013-02-15 16:39:00,67.0,65.5,29.98,NNW,329,2.0,5.0,95,0.05,,-RA,0.80,23.00,VWS V14.01,2013-02-15 21:39:00,
2013-02-15 16:40:00,67.0,65.5,29.98,NNW,329,3.0,3.0,95,0.05,,FEW065,0.80,23.00,VWS V14.01,2013-02-15 21:40:00,
2013-02-15 16:44:00,67.0,65.5,29.98,NNW,332,3.0,4.0,95,0.05,,-RA,0.80,30.00,VWS V14.01,2013-02-15 21:44:00,
2013-02-15 16:45:00,67.0,65.5,29.98,NNW,332,2.0,3.0,95,0.05,,FEW065,0.80,30.00,VWS V14.01,2013-02-15 21:45:00,
2013-02-15 16:49:00,67.0,65.5,29.99,NW,325,3.0,5.0,95,0.05,,-RA,0.80,35.00,VWS V14.01,2013-02-15 21:49:00,
2013-02-15 16:50:00,67.0,65.5,29.99,NW,325,2.0,5.0,95,0.05,,FEW065,0.80,35.00,VWS V14.01,2013-02-15 21:50:00,
2013-02-15 16:54:00,67.0,65.5,29.99,NNW,335,1.0,2.0,95,0.05,,-RA,0.80,40.00,VWS V14.01,2013-02-15 21:54:00,
2013-02-15 16:55:00,67.0,65.5,29.99,NNW,328,4.0,4.0,95,0.06,,FEW065,0.81,42.00,VWS V14.01,2013-02-15 21:55:00,
2013-02-15 16:59:00,67.1,65.6,29.99,NNW,328,1.0,3.0,95,0.05,,-RA,0.81,44.00,VWS V14.01,2013-02-15 21:59:00,
2013-02-15 17:00:00,67.1,65.6,29.99,NNW,328,2.0,3.0,95,0.05,,FEW065,0.81,46.00,VWS V14.01,2013-02-15 22:00:00,
2013-02-15 17:04:00,67.2,65.7,29.98,NNW,331,1.0,4.0,95,0.03,,-RA,0.81,40.00,VWS V14.01,2013-02-15 22:04:00,
2013-02-15 17:05:00,67.1,65.6,29.98,NNW,331,4.0,4.0,95,0.03,,FEW065,0.81,44.00,VWS V14.01,2013-02-15 22:05:00,
2013-02-15 17:09:00,67.2,65.7,29.98,NNW,332,1.0,3.0,95,0.03,,-RA,0.82,46.00,VWS V14.01,2013-02-15 22:09:00,
2013-02-15 17:10:00,67.2,65.7,29.98,NNW,332,1.0,3.0,95,0.03,,FEW065,0.82,35.00,VWS V14.01,2013-02-15 22:10:00,
2013-02-15 17:14:00,67.2,65.7,29.97,NNW,332,1.0,2.0,95,0.03,,-RA,0.82,26.00,VWS V14.01,2013-02-15 22:14:00,
2013-02-15 17:15:00,67.2,65.7,29.97,NNW,332,0.0,1.0,95,0.03,,FEW065,0.82,25.00,VWS V14.01,2013-02-15 22:15:00,
2013-02-15 17:19:00,67.3,65.8,29.97,NNE,32,0.0,1.0,95,0.03,,-RA,0.82,18.00,VWS V14.01,2013-02-15 22:19:00,
2013-02-15 17:20:00,67.3,65.8,29.97,NNE,32,1.0,1.0,95,0.03,,FEW065,0.82,18.00,VWS V14.01,2013-02-15 22:20:00,
2013-02-15 17:24:00,67.2,65.7,29.97,NNE,32,1.0,1.0,95,0.02,,-RA,0.82,16.00,VWS V14.01,2013-02-15 22:24:00,
2013-02-15 17:25:00,67.2,65.7,29.97,NNE,32,0.0,1.0,95,0.02,,FEW065,0.82,16.00,VWS V14.01,2013-02-15 22:25:00,
2013-02-15 17:29:00,67.2,65.7,29.97,North,9,1.0,2.0,95,0.02,,-RA,0.82,16.00,VWS V14.01,2013-02-15 22:29:00,
2013-02-15 17:30:00,67.2,65.7,29.97,North,9,1.0,2.0,95,0.02,,FEW065,0.82,16.00,VWS V14.01,2013-02-15 22:30:00,
2013-02-15 17:34:00,67.1,65.6,29.97,North,9,0.0,1.0,95,0.02,,-RA,0.82,9.00,VWS V14.01,2013-02-15 22:34:00,
2013-02-15 17:35:00,67.1,65.6,29.97,North,9,0.0,1.0,95,0.02,,FEW065,0.82,9.00,VWS V14.01,2013-02-15 22:35:00,
2013-02-15 17:39:00,67.0,65.5,29.97,North,355,1.0,1.0,95,0.02,,-RA,0.82,11.00,VWS V14.01,2013-02-15 22:39:00,
2013-02-15 17:40:00,66.9,65.4,29.97,North,355,1.0,3.0,95,0.02,,FEW065,0.82,11.00,VWS V14.01,2013-02-15 22:40:00,
2013-02-15 17:44:00,66.8,65.3,29.97,North,355,1.0,2.0,95,0.02,,-RA,0.82,9.00,VWS V14.01,2013-02-15 22:44:00,
2013-02-15 17:45:00,66.8,65.3,29.97,North,355,1.0,2.0,95,0.02,,FEW065,0.82,9.00,VWS V14.01,2013-02-15 22:45:00,
2013-02-15 17:49:00,66.8,65.3,29.96,North,9,2.0,4.0,95,0.02,,-RA,0.82,9.00,VWS V14.01,2013-02-15 22:49:00,
2013-02-15 17:50:00,66.8,65.3,29.96,North,9,2.0,3.0,95,0.02,,FEW065,0.82,9.00,VWS V14.01,2013-02-15 22:50:00,
2013-02-15 17:54:00,66.7,65.2,29.96,North,355,2.0,3.0,95,0.02,,-RA,0.82,5.00,VWS V14.01,2013-02-15 22:54:00,
2013-02-15 17:55:00,66.7,65.2,29.96,North,355,1.0,3.0,95,0.02,,FEW065,0.82,5.00,VWS V14.01,2013-02-15 22:55:00,
2013-02-15 17:59:00,66.7,65.2,29.97,NNE,27,1.0,2.0,95,0.01,,-RA,0.82,0.00,VWS V14.01,2013-02-15 22:59:00,
2013-02-15 18:00:00,66.7,65.2,29.97,NNE,23,1.0,2.0,95,0.01,,FEW065,0.82,0.00,VWS V14.01,2013-02-15 23:00:00,
2013-02-15 18:04:00,66.6,65.1,29.97,North,360,1.0,2.0,95,0.01,,-RA,0.82,0.00,VWS V14.01,2013-02-15 23:04:00,
2013-02-15 18:05:00,66.5,65.0,29.97,North,360,1.0,1.0,95,0.01,,FEW065,0.82,0.00,VWS V14.01,2013-02-15 23:05:00,
2013-02-15 18:09:00,66.4,64.9,29.97,North,360,2.0,2.0,95,0.01,,-RA,0.82,0.00,VWS V14.01,2013-02-15 23:09:00,
2013-02-15 18:10:00,66.4,64.9,29.98,North,360,0.0,2.0,95,0.01,,FEW065,0.82,0.00,VWS V14.01,2013-02-15 23:10:00,
2013-02-15 18:14:00,66.3,64.8,29.98,North,360,1.0,2.0,95,0.00,,-RA,0.82,0.00,VWS V14.01,2013-02-15 23:14:00,
2013-02-15 18:15:00,66.3,64.8,29.98,North,360,1.0,1.0,95,0.00,,FEW065,0.82,0.00,VWS V14.01,2013-02-15 23:15:00,
2013-02-15 18:19:00,66.1,64.6,29.98,NNW,335,2.0,4.0,95,0.00,,-RA,0.82,0.00,VWS V14.01,2013-02-15 23:19:00,
2013-02-15 18:20:00,66.1,64.6,29.98,NNW,335,4.0,5.0,95,0.00,,FEW065,0.82,0.00,VWS V14.01,2013-02-15 23:20:00,
2013-02-15 18:24:00,66.1,64.6,29.98,NNW,340,3.0,4.0,95,0.00,,-RA,0.82,0.00,VWS V14.01,2013-02-15 23:24:00,
2013-02-15 18:25:00,66.0,64.5,29.98,NNW,339,2.0,3.0,95,0.00,,FEW065,0.82,0.00,VWS V14.01,2013-02-15 23:25:00,
2013-02-15 18:29:00,66.1,64.6,29.98,NNW,339,1.0,2.0,95,0.00,,-RA,0.82,0.00,VWS V14.01,2013-02-15 23:29:00,
2013-02-15 18:30:00,66.1,64.6,29.98,NNW,346,1.0,3.0,95,0.00,,FEW065,0.82,0.00,VWS V14.01,2013-02-15 23:30:00,
2013-02-15 18:34:00,66.0,64.5,29.97,NNW,346,0.0,2.0,95,0.00,,-RA,0.82,0.00,VWS V14.01,2013-02-15 23:34:00,
2013-02-15 18:35:00,65.9,64.4,29.97,NNW,346,1.0,2.0,95,0.00,,FEW065,0.82,0.00,VWS V14.01,2013-02-15 23:35:00,
2013-02-15 18:39:00,65.9,64.4,29.97,NNE,21,2.0,3.0,95,0.00,,-RA,0.82,0.00,VWS V14.01,2013-02-15 23:39:00,
2013-02-15 18:40:00,65.9,64.4,29.96,NNE,21,2.0,2.0,95,0.00,,FEW065,0.82,0.00,VWS V14.01,2013-02-15 23:40:00,
2013-02-15 18:44:00,65.8,64.3,29.96,ENE,61,1.0,4.0,95,0.01,,-RA,0.83,0.00,VWS V14.01,2013-02-15 23:44:00,
2013-02-15 18:45:00,65.8,64.3,29.96,ENE,61,2.0,2.0,95,0.01,,FEW065,0.83,0.00,VWS V14.01,2013-02-15 23:45:00,
2013-02-15 18:49:00,65.7,64.2,29.97,ENE,61,0.0,3.0,95,0.01,,-RA,0.83,0.00,VWS V14.01,2013-02-15 23:49:00,
2013-02-15 18:50:00,65.7,64.2,29.97,ENE,61,1.0,3.0,95,0.01,,FEW065,0.83,0.00,VWS V14.01,2013-02-15 23:50:00,
2013-02-15 18:54:00,65.5,64.0,29.97,ENE,61,2.0,2.0,95,0.01,,-RA,0.83,0.00,VWS V14.01,2013-02-15 23:54:00,
2013-02-15 18:55:00,65.5,64.0,29.97,ENE,57,1.0,5.0,95,0.01,,FEW065,0.83,0.00,VWS V14.01,2013-02-15 23:55:00,
2013-02-15 18:59:00,65.3,63.8,29.97,ENE,57,0.0,1.0,95,0.01,,-RA,0.83,0.00,VWS V14.01,2013-02-15 23:59:00,
2013-02-15 19:00:00,65.2,63.7,29.97,ENE,57,0.0,1.0,95,0.01,,FEW065,0.83,0.00,VWS V14.01,2013-02-16 00:00:00,
2013-02-15 19:04:00,65.2,63.7,29.97,ENE,57,1.0,3.0,95,0.01,,-RA,0.83,0.00,VWS V14.01,2013-02-16 00:04:00,
2013-02-15 19:05:00,65.2,63.7,29.97,ENE,57,0.0,2.0,95,0.01,,FEW065,0.83,0.00,VWS V14.01,2013-02-16 00:05:00,
2013-02-15 19:09:00,65.2,63.7,29.97,ENE,57,1.0,3.0,95,0.01,,-RA,0.83,0.00,VWS V14.01,2013-02-16 00:09:00,
2013-02-15 19:10:00,65.2,63.7,29.97,ENE,57,0.0,2.0,95,0.01,,FEW065,0.83,0.00,VWS V14.01,2013-02-16 00:10:00,
2013-02-15 19:14:00,65.3,63.8,29.97,ENE,57,2.0,2.0,95,0.01,,-RA,0.83,0.00,VWS V14.01,2013-02-16 00:14:00,
2013-02-15 19:15:00,65.3,63.8,29.97,ENE,57,1.0,2.0,95,0.01,,FEW065,0.83,0.00,VWS V14.01,2013-02-16 00:15:00,
2013-02-15 19:19:00,65.4,63.9,29.97,ENE,57,1.0,3.0,95,0.01,,-RA,0.83,0.00,VWS V14.01,2013-02-16 00:19:00,
2013-02-15 19:20:00,65.4,63.9,29.97,ENE,57,1.0,3.0,95,0.01,,FEW065,0.83,0.00,VWS V14.01,2013-02-16 00:20:00,
2013-02-15 19:24:00,65.4,63.9,29.97,ENE,63,3.0,3.0,95,0.01,,-RA,0.83,0.00,VWS V14.01,2013-02-16 00:24:00,
2013-02-15 19:25:00,65.4,63.9,29.97,ENE,63,1.0,3.0,95,0.01,,FEW065,0.83,0.00,VWS V14.01,2013-02-16 00:25:00,
2013-02-15 19:29:00,65.4,63.9,29.98,ENE,63,1.0,2.0,95,0.01,,-RA,0.83,0.00,VWS V14.01,2013-02-16 00:29:00,
2013-02-15 19:30:00,65.4,63.9,29.98,ENE,63,1.0,1.0,95,0.01,,FEW065,0.83,0.00,VWS V14.01,2013-02-16 00:30:00,
2013-02-15 19:34:00,65.4,63.9,29.97,ENE,63,2.0,2.0,95,0.02,,-RA,0.84,0.00,VWS V14.01,2013-02-16 00:34:00,
2013-02-15 19:35:00,65.4,63.9,29.97,ENE,63,2.0,2.0,95,0.02,,FEW065,0.84,0.00,VWS V14.01,2013-02-16 00:35:00,
2013-02-15 19:39:00,65.3,63.8,29.97,ENE,63,0.0,0.0,95,0.02,,-RA,0.84,0.00,VWS V14.01,2013-02-16 00:39:00,
2013-02-15 19:40:00,65.4,63.9,29.97,ENE,63,0.0,0.0,95,0.02,,FEW065,0.84,0.00,VWS V14.01,2013-02-16 00:40:00,
2013-02-15 19:44:00,65.3,63.8,29.98,ENE,63,0.0,1.0,95,0.02,,-RA,0.84,0.00,VWS V14.01,2013-02-16 00:44:00,
2013-02-15 19:45:00,65.3,63.8,29.98,ENE,63,0.0,0.0,95,0.02,,FEW065,0.84,0.00,VWS V14.01,2013-02-16 00:45:00,
2013-02-15 19:49:00,65.3,63.8,29.98,ENE,63,1.0,1.0,95,0.02,,-RA,0.85,0.00,VWS V14.01,2013-02-16 00:49:00,
2013-02-15 19:50:00,65.3,63.8,29.98,ENE,63,1.0,2.0,95,0.02,,FEW065,0.85,0.00,VWS V14.01,2013-02-16 00:50:00,
2013-02-15 19:54:00,65.3,63.8,29.98,ENE,63,0.0,1.0,95,0.02,,-RA,0.85,0.00,VWS V14.01,2013-02-16 00:54:00,
2013-02-15 19:55:00,65.3,63.8,29.98,ENE,63,0.0,1.0,95,0.02,,FEW065,0.85,0.00,VWS V14.01,2013-02-16 00:55:00,
2013-02-15 19:59:00,65.4,63.9,29.98,ENE,63,0.0,0.0,95,0.02,,-RA,0.85,0.00,VWS V14.01,2013-02-16 00:59:00,
2013-02-15 20:00:00,65.4,63.9,29.98,ENE,63,0.0,0.0,95,0.02,,FEW065,0.85,0.00,VWS V14.01,2013-02-16 01:00:00,
2013-02-15 20:04:00,65.4,63.9,29.98,ENE,63,0.0,1.0,95,0.03,,-RA,0.86,0.00,VWS V14.01,2013-02-16 01:04:00,
2013-02-15 20:05:00,65.4,63.9,29.98,ENE,63,0.0,1.0,95,0.03,,FEW065,0.86,0.00,VWS V14.01,2013-02-16 01:05:00,
2013-02-15 20:09:00,65.4,63.9,29.98,ENE,63,0.0,1.0,95,0.03,,-RA,0.86,0.00,VWS V14.01,2013-02-16 01:09:00,
2013-02-15 20:10:00,65.5,64.0,29.98,ENE,63,0.0,0.0,95,0.03,,FEW065,0.86,0.00,VWS V14.01,2013-02-16 01:10:00,
2013-02-15 20:14:00,65.5,64.0,29.98,ENE,63,0.0,0.0,95,0.04,,-RA,0.87,0.00,VWS V14.01,2013-02-16 01:14:00,
2013-02-15 20:15:00,65.5,64.0,29.98,ENE,63,0.0,0.0,95,0.04,,FEW065,0.87,0.00,VWS V14.01,2013-02-16 01:15:00,
2013-02-15 20:19:00,65.5,64.0,29.99,ENE,63,0.0,0.0,95,0.04,,-RA,0.87,0.00,VWS V14.01,2013-02-16 01:19:00,
2013-02-15 20:20:00,65.5,64.0,29.99,ENE,63,0.0,0.0,95,0.04,,FEW065,0.87,0.00,VWS V14.01,2013-02-16 01:20:00,
2013-02-15 20:24:00,65.5,64.0,29.99,ENE,63,0.0,0.0,95,0.04,,-RA,0.87,0.00,VWS V14.01,2013-02-16 01:24:00,
2013-02-15 20:25:00,65.5,64.0,29.99,ENE,63,0.0,0.0,95,0.04,,FEW065,0.87,0.00,VWS V14.01,2013-02-16 01:25:00,
2013-02-15 20:29:00,65.5,64.0,29.98,ENE,63,0.0,0.0,95,0.04,,-RA,0.87,0.00,VWS V14.01,2013-02-16 01:29:00,
2013-02-15 20:30:00,65.6,64.4,29.98,ENE,63,0.0,0.0,96,0.04,,FEW065,0.87,0.00,VWS V14.01,2013-02-16 01:30:00,
2013-02-15 20:34:00,65.6,64.4,29.97,ENE,63,1.0,2.0,96,0.05,,-RA,0.88,0.00,VWS V14.01,2013-02-16 01:34:00,
2013-02-15 20:35:00,65.6,64.4,29.97,ENE,63,0.0,2.0,96,0.05,,FEW065,0.88,0.00,VWS V14.01,2013-02-16 01:35:00,
2013-02-15 20:39:00,65.6,64.4,29.97,ENE,63,1.0,1.0,96,0.04,,-RA,0.88,0.00,VWS V14.01,2013-02-16 01:39:00,
2013-02-15 20:40:00,65.6,64.4,29.97,ENE,63,0.0,1.0,96,0.04,,FEW065,0.88,0.00,VWS V14.01,2013-02-16 01:40:00,
2013-02-15 20:44:00,65.6,64.4,29.97,ENE,63,1.0,2.0,96,0.04,,-RA,0.88,0.00,VWS V14.01,2013-02-16 01:44:00,
2013-02-15 20:45:00,65.6,64.4,29.97,ENE,63,1.0,2.0,96,0.04,,FEW065,0.88,0.00,VWS V14.01,2013-02-16 01:45:00,
2013-02-15 20:49:00,65.5,64.3,29.98,ENE,63,0.0,0.0,96,0.04,,-RA,0.88,0.00,VWS V14.01,2013-02-16 01:49:00,
2013-02-15 20:50:00,65.5,64.3,29.98,ENE,63,0.0,0.0,96,0.04,,FEW065,0.88,0.00,VWS V14.01,2013-02-16 01:50:00,
2013-02-15 20:54:00,65.5,64.3,29.98,ENE,63,0.0,1.0,96,0.03,,-RA,0.88,0.00,VWS V14.01,2013-02-16 01:54:00,
2013-02-15 20:55:00,65.5,64.3,29.98,ENE,63,1.0,1.0,96,0.03,,FEW065,0.88,0.00,VWS V14.01,2013-02-16 01:55:00,
2013-02-15 20:59:00,65.5,64.3,29.98,ENE,63,0.0,0.0,96,0.03,,-RA,0.88,0.00,VWS V14.01,2013-02-16 01:59:00,
2013-02-15 21:00:00,65.5,64.3,29.98,ENE,63,0.0,0.0,96,0.03,,FEW065,0.88,0.00,VWS V14.01,2013-02-16 02:00:00,
2013-02-15 21:04:00,65.5,64.3,29.98,ENE,63,0.0,1.0,96,0.03,,-RA,0.88,0.00,VWS V14.01,2013-02-16 02:04:00,
2013-02-15 21:05:00,65.5,64.3,29.98,ENE,63,0.0,0.0,96,0.03,,FEW065,0.88,0.00,VWS V14.01,2013-02-16 02:05:00,
2013-02-15 21:09:00,65.5,64.3,29.98,ENE,63,0.0,0.0,96,0.02,,-RA,0.88,0.00,VWS V14.01,2013-02-16 02:09:00,
2013-02-15 21:10:00,65.5,64.3,29.98,ENE,63,0.0,0.0,96,0.02,,FEW065,0.88,0.00,VWS V14.01,2013-02-16 02:10:00,
2013-02-15 21:14:00,65.5,64.3,29.98,ENE,63,0.0,0.0,96,0.02,,-RA,0.88,0.00,VWS V14.01,2013-02-16 02:14:00,
2013-02-15 21:15:00,65.5,64.3,29.98,ENE,63,0.0,0.0,96,0.02,,FEW065,0.88,0.00,VWS V14.01,2013-02-16 02:15:00,
2013-02-15 21:19:00,65.6,64.4,29.98,ENE,63,0.0,0.0,96,0.01,,-RA,0.88,0.00,VWS V14.01,2013-02-16 02:19:00,
2013-02-15 21:20:00,65.6,64.4,29.98,ENE,63,0.0,0.0,96,0.01,,FEW065,0.88,0.00,VWS V14.01,2013-02-16 02:20:00,
2013-02-15 21:24:00,65.5,64.3,29.98,ENE,63,0.0,0.0,96,0.01,,-RA,0.88,0.00,VWS V14.01,2013-02-16 02:24:00,
2013-02-15 21:25:00,65.5,64.3,29.98,ENE,63,0.0,0.0,96,0.01,,FEW065,0.88,0.00,VWS V14.01,2013-02-16 02:25:00,
2013-02-15 21:29:00,65.5,64.3,29.98,ENE,63,0.0,0.0,96,0.01,,-RA,0.88,0.00,VWS V14.01,2013-02-16 02:29:00,
2013-02-15 21:30:00,65.5,64.3,29.98,ENE,63,0.0,0.0,96,0.01,,FEW065,0.88,0.00,VWS V14.01,2013-02-16 02:30:00,
2013-02-15 21:34:00,65.5,64.3,29.98,ENE,63,1.0,2.0,96,0.01,,-RA,0.88,0.00,VWS V14.01,2013-02-16 02:34:00,
2013-02-15 21:35:00,65.6,64.4,29.98,ENE,63,1.0,2.0,96,0.01,,FEW065,0.88,0.00,VWS V14.01,2013-02-16 02:35:00,
2013-02-15 21:39:00,65.7,64.5,29.98,ENE,63,1.0,1.0,96,0.00,,-RA,0.88,0.00,VWS V14.01,2013-02-16 02:39:00,
2013-02-15 21:40:00,65.7,64.5,29.98,ENE,63,0.0,1.0,96,0.00,,FEW065,0.88,0.00,VWS V14.01,2013-02-16 02:40:00,
2013-02-15 21:44:00,65.7,64.5,29.98,NE,55,2.0,3.0,96,0.00,,-RA,0.88,0.00,VWS V14.01,2013-02-16 02:44:00,
2013-02-15 21:45:00,65.7,64.5,29.98,NE,55,1.0,3.0,96,0.00,,FEW065,0.88,0.00,VWS V14.01,2013-02-16 02:45:00,
2013-02-15 21:49:00,65.8,64.6,29.98,NE,55,0.0,3.0,96,0.00,,-RA,0.88,0.00,VWS V14.01,2013-02-16 02:49:00,
2013-02-15 21:50:00,65.8,64.6,29.98,NE,55,1.0,2.0,96,0.01,,FEW065,0.89,0.00,VWS V14.01,2013-02-16 02:50:00,
2013-02-15 21:54:00,65.9,64.7,29.98,NE,55,3.0,3.0,96,0.01,,OVC120,0.89,0.00,VWS V14.01,2013-02-16 02:54:00,
2013-02-15 21:55:00,65.9,64.7,29.98,NE,55,1.0,3.0,96,0.01,,FEW065,0.89,0.00,VWS V14.01,2013-02-16 02:55:00,
2013-02-15 21:59:00,65.9,64.7,29.98,NE,51,1.0,2.0,96,0.01,,OVC120,0.89,0.00,VWS V14.01,2013-02-16 02:59:00,
2013-02-15 22:00:00,65.9,64.7,29.98,NE,51,2.0,2.0,96,0.01,,FEW065,0.89,0.00,VWS V14.01,2013-02-16 03:00:00,
2013-02-15 22:04:00,65.9,64.7,29.98,NE,51,1.0,2.0,96,0.01,,BKN100,0.89,0.00,VWS V14.01,2013-02-16 03:04:00,
2013-02-15 22:05:00,65.9,64.7,29.98,NE,51,0.0,2.0,96,0.01,,FEW065,0.89,0.00,VWS V14.01,2013-02-16 03:05:00,
2013-02-15 22:09:00,65.9,64.7,29.98,NE,51,1.0,3.0,96,0.01,,BKN100,0.89,0.00,VWS V14.01,2013-02-16 03:09:00,
2013-02-15 22:10:00,65.9,64.7,29.98,NE,51,2.0,3.0,96,0.01,,FEW065,0.89,0.00,VWS V14.01,2013-02-16 03:10:00,
2013-02-15 22:14:00,65.9,64.7,29.98,NE,51,2.0,2.0,96,0.01,,BKN100,0.89,0.00,VWS V14.01,2013-02-16 03:14:00,
2013-02-15 22:15:00,65.9,64.7,29.98,NE,51,1.0,2.0,96,0.01,,FEW065,0.89,0.00,VWS V14.01,2013-02-16 03:15:00,
2013-02-15 22:19:00,65.9,64.7,29.98,NE,51,0.0,0.0,96,0.01,,BKN100,0.89,0.00,VWS V14.01,2013-02-16 03:19:00,
2013-02-15 22:20:00,65.9,64.7,29.98,NE,51,0.0,0.0,96,0.01,,FEW065,0.89,0.00,VWS V14.01,2013-02-16 03:20:00,
2013-02-15 22:24:00,65.9,64.7,29.98,NE,51,2.0,2.0,96,0.01,,BKN100,0.89,0.00,VWS V14.01,2013-02-16 03:24:00,
2013-02-15 22:25:00,65.9,64.7,29.98,NE,51,1.0,2.0,96,0.01,,FEW065,0.89,0.00,VWS V14.01,2013-02-16 03:25:00,
2013-02-15 22:29:00,65.8,64.6,29.98,NE,51,1.0,2.0,96,0.01,,BKN100,0.89,0.00,VWS V14.01,2013-02-16 03:29:00,
2013-02-15 22:30:00,65.8,64.6,29.98,NE,51,0.0,2.0,96,0.01,,FEW065,0.89,0.00,VWS V14.01,2013-02-16 03:30:00,
2013-02-15 22:34:00,65.8,64.6,29.99,NE,51,1.0,2.0,96,0.01,,BKN100,0.89,0.00,VWS V14.01,2013-02-16 03:34:00,
2013-02-15 22:35:00,65.8,64.6,29.99,NE,51,2.0,2.0,96,0.01,,FEW065,0.89,0.00,VWS V14.01,2013-02-16 03:35:00,
2013-02-15 22:39:00,65.8,64.6,29.98,NE,51,1.0,2.0,96,0.01,,BKN100,0.89,0.00,VWS V14.01,2013-02-16 03:39:00,
2013-02-15 22:40:00,65.8,64.6,29.98,NE,51,2.0,2.0,96,0.01,,FEW065,0.89,0.00,VWS V14.01,2013-02-16 03:40:00,
2013-02-15 22:44:00,65.7,64.5,29.98,NE,51,0.0,0.0,96,0.01,,OVC007,0.89,0.00,VWS V14.01,2013-02-16 03:44:00,
2013-02-15 22:45:00,65.7,64.5,29.98,NE,51,1.0,1.0,96,0.01,,FEW065,0.89,0.00,VWS V14.01,2013-02-16 03:45:00,
2013-02-15 22:49:00,65.6,64.4,29.98,NE,51,1.0,1.0,96,0.01,,OVC007,0.89,0.00,VWS V14.01,2013-02-16 03:49:00,
2013-02-15 22:50:00,65.6,64.4,29.98,NE,51,1.0,2.0,96,0.01,,FEW065,0.89,0.00,VWS V14.01,2013-02-16 03:50:00,
2013-02-15 22:54:00,65.5,64.3,29.98,NE,51,0.0,0.0,96,0.00,,OVC007,0.89,0.00,VWS V14.01,2013-02-16 03:54:00,
2013-02-15 22:55:00,65.5,64.3,29.98,NE,51,0.0,0.0,96,0.00,,FEW065,0.89,0.00,VWS V14.01,2013-02-16 03:55:00,
2013-02-15 22:59:00,65.4,64.2,29.98,NE,51,0.0,0.0,96,0.00,,OVC007,0.89,0.00,VWS V14.01,2013-02-16 03:59:00,
2013-02-15 23:00:00,65.4,64.2,29.98,NE,51,0.0,0.0,96,0.00,,FEW065,0.89,0.00,VWS V14.01,2013-02-16 04:00:00,
2013-02-15 23:04:00,65.3,64.1,29.98,NE,51,0.0,0.0,96,0.00,,OVC007,0.89,0.00,VWS V14.01,2013-02-16 04:04:00,
2013-02-15 23:05:00,65.3,64.1,29.98,NE,51,0.0,0.0,96,0.00,,FEW065,0.89,0.00,VWS V14.01,2013-02-16 04:05:00,
2013-02-15 23:09:00,65.3,64.1,29.98,NE,51,0.0,0.0,96,0.00,,OVC007,0.89,0.00,VWS V14.01,2013-02-16 04:09:00,
2013-02-15 23:10:00,65.3,64.1,29.98,NE,51,0.0,0.0,96,0.00,,FEW065,0.89,0.00,VWS V14.01,2013-02-16 04:10:00,
2013-02-15 23:14:00,65.3,64.1,29.98,NE,51,0.0,0.0,96,0.00,,OVC007,0.89,0.00,VWS V14.01,2013-02-16 04:14:00,
2013-02-15 23:15:00,65.3,64.1,29.97,NE,51,0.0,0.0,96,0.00,,FEW065,0.89,0.00,VWS V14.01,2013-02-16 04:15:00,
2013-02-15 23:19:00,65.3,64.1,29.97,NE,51,0.0,0.0,96,0.00,,OVC007,0.89,0.00,VWS V14.01,2013-02-16 04:19:00,
2013-02-15 23:20:00,65.3,64.1,29.97,NE,51,0.0,0.0,96,0.00,,FEW065,0.89,0.00,VWS V14.01,2013-02-16 04:20:00,
2013-02-15 23:24:00,65.3,64.1,29.98,NE,51,1.0,1.0,96,0.00,,OVC007,0.89,0.00,VWS V14.01,2013-02-16 04:24:00,
2013-02-15 23:25:00,65.4,64.2,29.98,NE,51,1.0,2.0,96,0.00,,FEW065,0.89,0.00,VWS V14.01,2013-02-16 04:25:00,
2013-02-15 23:29:00,65.4,64.2,29.98,NE,51,1.0,2.0,96,0.00,,OVC007,0.89,0.00,VWS V14.01,2013-02-16 04:29:00,
2013-02-15 23:30:00,65.4,64.2,29.98,NE,51,1.0,2.0,96,0.00,,FEW065,0.89,0.00,VWS V14.01,2013-02-16 04:30:00,
2013-02-15 23:34:00,65.4,64.2,29.97,NE,51,1.0,2.0,96,0.00,,OVC007,0.89,0.00,VWS V14.01,2013-02-16 04:34:00,
2013-02-15 23:35:00,65.4,64.2,29.97,NE,51,0.0,2.0,96,0.00,,FEW065,0.89,0.00,VWS V14.01,2013-02-16 04:35:00,
2013-02-15 23:39:00,65.3,64.1,29.97,NE,51,0.0,0.0,96,0.00,,OVC007,0.89,0.00,VWS V14.01,2013-02-16 04:39:00,
2013-02-15 23:40:00,65.3,64.1,29.97,NE,51,1.0,1.0,96,0.00,,FEW065,0.89,0.00,VWS V14.01,2013-02-16 04:40:00,
2013-02-15 23:44:00,65.3,64.1,29.97,NE,51,0.0,0.0,96,0.00,,BKN075,0.89,0.00,VWS V14.01,2013-02-16 04:44:00,
2013-02-15 23:45:00,65.3,64.1,29.97,NE,51,0.0,0.0,96,0.00,,FEW065,0.89,0.00,VWS V14.01,2013-02-16 04:45:00,
2013-02-15 23:49:00,65.3,64.1,29.97,NE,51,0.0,1.0,96,0.00,,BKN075,0.89,0.00,VWS V14.01,2013-02-16 04:49:00,
2013-02-15 23:50:00,65.3,64.1,29.97,NE,51,1.0,1.0,96,0.00,,FEW065,0.89,0.00,VWS V14.01,2013-02-16 04:50:00,
2013-02-15 23:54:00,65.3,64.1,29.97,NE,51,0.0,0.0,96,0.00,,BKN075,0.89,0.00,VWS V14.01,2013-02-16 04:54:00,
2013-02-15 23:55:00,65.3,64.1,29.97,NE,51,0.0,0.0,96,0.00,,FEW065,0.89,0.00,VWS V14.01,2013-02-16 04:55:00,
2013-02-15 23:59:00,65.2,64.0,29.96,NE,51,0.0,0.0,96,0.00,,BKN075,0.89,0.00,VWS V14.01,2013-02-16 04:59:00,